Weather History for KTEB - January, 2013

Change the Weather History Date:

Wednesday, January 16, 2013

  Actual Average Record
Temperature  
Mean Temperature 34 °F -  
Max Temperature 36 °F 34 °F 55 °F (2007)
Min Temperature 32 °F 20 °F 1 °F (2004)
Degree Days  
Heating Degree Days 31    
Moisture  
Dew Point 32 °F    
Average Humidity 95    
Maximum Humidity 100    
Minimum Humidity 89    
Precipitation  
Precipitation 0.36 in - - ()
Sea Level Pressure  
Sea Level Pressure 29.98 in    
Wind  
Wind Speed 5 mph (NNW)    
Max Wind Speed 8 mph    
Max Gust Speed -    
Visibility 5 miles    
Events Rain , Snow    
Averages and records for this station are not official NWS values.
T = Trace of Precipitation, MM = Missing Value Source: NWS Daily Summary

Daily Weather History Graph

Daily Weather History Graph

Search for Another Location

Airport or City:

Trip Planner

Search our weather history database for the weather conditions in past years. The results will help you decide how hot, cold, wet, or windy it might be!

Date:

Astronomy

Jan. 16, 2013 Rise Set
Actual Time 7:17 AM EST 4:54 PM EST
Civil Twilight 6:47 AM EST 5:24 PM EST
Nautical Twilight 6:14 AM EST 5:58 PM EST
Astronomical Twilight 5:41 AM EST 6:31 PM EST
Moon 9:50 AM EST (1/16) 10:46 PM EST (1/16)
Length of Visible Light 10h 36m
Length of Day
9h 36m
Waxing Crescent, 28% of the Moon is Illuminated
Jan 16
Waxing Crescent
Jan 18
First Quarter
Jan 26
Full
Feb 3
Last Quarter
Feb 10
New

Hourly Weather History & Observations

Time (EST) Temp. Windchill Dew Point Humidity Pressure Visibility Wind Dir Wind Speed Gust Speed Precip Events Conditions
12:51 AM 33.1 °F 26.9 °F 30.0 °F 89% 30.22 in 8.0 mi NNE 6.9 mph - 0.05 in Rain Light Ice Pellets
1:51 AM 32.0 °F 28.7 °F 30.2 °F 93% 30.19 in 6.0 mi North 3.5 mph - N/A Rain Light Ice Pellets
2:36 AM 32.0 °F 27.5 °F 30.2 °F 93% 30.18 in 7.0 mi North 4.6 mph - 0.04 in Rain Light Rain
2:51 AM 32.0 °F 24.8 °F 30.9 °F 96% 30.17 in 8.0 mi NNE 8.1 mph - 0.06 in Rain Light Rain
3:04 AM 32.0 °F 26.4 °F 30.2 °F 93% 30.15 in 7.0 mi NNE 5.8 mph - 0.01 in Rain Light Rain
4:00 AM 32.0 °F 27.5 °F 30.2 °F 93% 30.13 in 6.0 mi North 4.6 mph - 0.02 in Rain Ice Pellets
4:51 AM 32.0 °F 27.5 °F 30.9 °F 96% 30.12 in 4.0 mi NNE 4.6 mph - 0.13 in Snow Ice Pellets
5:23 AM 32.0 °F 28.7 °F 30.2 °F 93% 30.09 in 3.0 mi NE 3.5 mph - 0.04 in Snow Ice Pellets
5:51 AM 32.0 °F - 30.9 °F 96% 30.08 in 3.0 mi Calm Calm - 0.08 in Snow Ice Pellets
6:58 AM 32.0 °F 27.5 °F 30.2 °F 93% 30.07 in 3.0 mi North 4.6 mph - 0.00 in Rain Light Rain
7:51 AM 32.0 °F 28.7 °F 30.9 °F 96% 30.05 in 3.0 mi NNE 3.5 mph - 0.02 in Rain Light Rain
8:51 AM 32.0 °F 27.5 °F 30.2 °F 93% 30.00 in 3.0 mi NE 4.6 mph - N/A   Overcast
9:51 AM 32.0 °F 27.5 °F 30.9 °F 96% 29.97 in 3.0 mi North 4.6 mph - 0.00 in   Light Drizzle
10:51 AM 33.1 °F 28.7 °F 30.9 °F 92% 29.98 in 3.0 mi NNW 4.6 mph - 0.00 in Rain Light Rain
11:51 AM 33.1 °F 27.7 °F 32.0 °F 96% 29.95 in 3.0 mi NNW 5.8 mph - 0.01 in Rain Light Rain
12:31 PM 33.8 °F 30.8 °F 32.0 °F 93% 29.89 in 3.0 mi East 3.5 mph - 0.01 in   Light Drizzle
12:51 PM 33.1 °F - 32.0 °F 96% 29.89 in 3.0 mi Calm Calm - 0.01 in   Light Drizzle
12:58 PM 33.8 °F 29.6 °F 32.0 °F 93% 29.86 in 3.0 mi East 4.6 mph - 0.00 in   Light Drizzle
1:51 PM 33.1 °F - 32.0 °F 96% 29.81 in 3.0 mi Calm Calm - 0.00 in   Light Drizzle
2:25 PM 33.8 °F 29.6 °F 33.8 °F 100% 29.90 in 2.5 mi NW 4.6 mph - 0.00 in   Light Drizzle
2:43 PM 33.8 °F - 33.8 °F 100% 29.89 in 1.5 mi Calm Calm - 0.00 in   Light Drizzle
2:51 PM 34.0 °F - 33.1 °F 96% 29.88 in 1.5 mi Calm Calm - 0.00 in   Light Drizzle
3:02 PM 33.8 °F 30.8 °F 33.8 °F 100% 29.87 in 3.0 mi NNW 3.5 mph - 0.00 in   Light Drizzle
3:16 PM 33.8 °F - 33.8 °F 100% 29.89 in 3.0 mi Calm Calm - 0.00 in   Overcast
3:51 PM 33.8 °F 30.8 °F 33.8 °F 100% 29.91 in 3.0 mi WNW 3.5 mph - N/A   Overcast
4:51 PM 35.1 °F 31.0 °F 34.0 °F 96% 29.91 in 3.0 mi West 4.6 mph - N/A   Overcast
5:48 PM 35.6 °F 32.8 °F 33.8 °F 93% 29.91 in 3.0 mi SSW 3.5 mph - N/A   Overcast
5:51 PM 35.1 °F 32.2 °F 34.0 °F 96% 29.91 in 3.0 mi SSW 3.5 mph - N/A   Overcast
6:49 PM 35.6 °F 30.7 °F 33.8 °F 93% 29.89 in 8.0 mi SSW 5.8 mph - N/A   Overcast
6:51 PM 35.1 °F 29.3 °F 34.0 °F 96% 29.89 in 8.0 mi SSW 6.9 mph - N/A   Overcast
7:51 PM 36.0 °F 29.6 °F 33.1 °F 89% 29.91 in 8.0 mi SW 8.1 mph - N/A   Overcast
8:22 PM 35.6 °F 30.7 °F 33.8 °F 93% 29.91 in 8.0 mi SW 5.8 mph - N/A   Overcast
8:51 PM 35.1 °F 28.6 °F 33.1 °F 92% 29.92 in 8.0 mi SSW 8.1 mph - N/A   Scattered Clouds
9:51 PM 35.1 °F 31.0 °F 33.1 °F 92% 29.91 in 10.0 mi SW 4.6 mph - N/A   Clear
10:51 PM 36.0 °F 29.6 °F 34.0 °F 93% 29.91 in 10.0 mi SSW 8.1 mph - N/A   Clear
11:51 PM 36.0 °F 31.1 °F 34.0 °F 93% 29.92 in 10.0 mi SSW 5.8 mph - N/A   Clear